Simultaneous Nadir Overpasses (SNOs) Predictions

Prediction of SNOs between NOAA-20 and METOP-B Satellite Orbit:

Table of predicted SNOs for the next 14.0 days since TLE Epoch: 2/6/2021
Index Date (NOAA-20) Time (NOAA-20) Lat,Lon (NOAA-20) SZA (NOAA-20 ) Date (METOP-B) Time (METOP-B) Lat,Lon (METOP-B) SZA (METOP-B ) Distance(km) Time Diff (sec)
1 02/19/2021 06:39:46 73.51, 70.19 85.03 02/19/2021 06:40:52 73.47, 73.22 84.80 95.82 66
2 02/19/2021 07:30:29 -73.45,-122.35 95.06 02/19/2021 07:31:36 -73.40,-119.62 95.28 86.81 67
3 02/19/2021 08:21:10 73.21, 45.48 84.67 02/19/2021 08:22:20 73.15, 47.16 84.49 54.52 70
4 02/19/2021 09:11:53 -73.15,-147.07 95.42 02/19/2021 09:13:04 -73.08,-145.67 95.59 45.85 71
5 02/19/2021 10:02:34 72.92, 20.75 84.32 02/19/2021 10:03:47 72.87, 21.23 84.23 16.52 73
6 02/19/2021 10:53:17 -72.86,-171.81 95.77 02/19/2021 10:54:31 -72.80,-171.59 95.85 8.99 74
7 02/19/2021 11:44:01 72.77, -4.32 84.13 02/19/2021 11:45:11 72.75, -4.37 84.09 2.93 70
8 02/19/2021 12:34:45 -72.76, 163.02 95.90 02/19/2021 12:35:53 -72.78, 163.02 95.90 2.57 68
9 02/19/2021 13:25:31 72.78, -29.71 84.11 02/19/2021 13:26:32 72.78, -29.65 84.09 1.84 61
10 02/19/2021 14:16:15 -72.77, 137.63 95.92 02/19/2021 14:17:15 -72.76, 137.64 95.94 0.51 60
11 02/19/2021 15:07:00 72.73, -54.99 84.03 02/19/2021 15:07:54 72.76, -55.04 84.05 3.15 54
12 02/19/2021 15:57:45 -72.77, 112.25 95.94 02/19/2021 15:58:37 -72.74, 112.25 95.99 3.56 52
13 02/19/2021 16:48:29 72.74, -80.37 84.02 02/19/2021 16:49:15 72.73, -80.42 84.00 1.69 46
14 02/19/2021 17:39:13 -72.73, 86.97 96.02 02/19/2021 17:39:58 -72.72, 86.87 96.03 3.51 45
15 02/19/2021 18:29:59 72.74,-105.76 84.00 02/19/2021 18:30:36 72.76,-105.70 84.00 2.83 37
16 02/19/2021 19:20:43 -72.73, 61.58 96.03 02/19/2021 19:21:19 -72.74, 61.59 96.03 1.56 36
17 02/19/2021 20:11:29 72.75,-131.14 83.98 02/19/2021 20:11:58 72.74,-131.09 83.96 2.05 29
18 02/19/2021 21:02:13 -72.74, 36.20 96.05 02/19/2021 21:02:41 -72.72, 36.20 96.07 1.51 28
19 02/19/2021 21:52:58 72.70,-156.42 83.90 02/19/2021 21:53:20 72.72,-156.47 83.91 2.31 22
20 02/19/2021 22:43:42 -72.69, 10.92 96.13 02/19/2021 22:44:03 -72.70, 10.81 96.12 3.51 21
21 02/19/2021 23:34:28 72.71, 178.19 83.88 02/19/2021 23:34:42 72.70, 178.14 83.87 2.19 14
22 02/20/2021 00:25:12 -72.70, -14.47 96.15 02/20/2021 00:25:24 -72.73, -14.47 96.12 3.61 12
23 02/20/2021 01:15:58 72.71, 152.80 83.86 02/20/2021 01:16:03 72.72, 152.86 83.87 2.14 5
24 02/20/2021 02:06:42 -72.70, -39.86 96.17 02/20/2021 02:06:46 -72.71, -39.85 96.16 0.56 4
25 02/20/2021 02:57:28 72.72, 127.42 83.84 02/20/2021 02:57:25 72.70, 127.47 83.82 2.71 3



Historial Predications of SNOs between NOAA-20 and METOP-B
